| time (UTC) | temp F | wind direction | speed MPH | gust MPH | rain 1hr in | rain 24hr in | rain mn in | humidity % | barometer mb |
| 20260508224521 | 67 | 253 | 1.0 | 5.0 | 0.00 | 0.00 | 0.00 | 23 | 1015.4 |
| 20260508223601 | 64 | 16 | 3.0 | 4.0 | 0.00 | 0.00 | 0.00 | 23 | 1015.4 |
| 20260508222521 | 64 | 7 | 4.0 | 7.0 | 0.00 | 0.00 | 0.00 | 24 | 1015.5 |
| 20260508221518 | 64 | 0 | 5.0 | 9.0 | 0.00 | 0.00 | 0.00 | 24 | 1015.6 |
| 20260508220517 | 65 | 72 | 4.0 | 9.0 | 0.00 | 0.00 | 0.00 | 25 | 1015.6 |
| 20260508215538 | 64 | 35 | 4.0 | 9.0 | 0.00 | 0.00 | 0.00 | 24 | 1015.8 |
| 20260508214518 | 64 | 33 | 3.0 | 8.0 | 0.00 | 0.00 | 0.00 | 25 | 1015.9 |
| 20260508213518 | 65 | 352 | 5.0 | 10.0 | 0.00 | 0.00 | 0.00 | 24 | 1016.0 |
| 20260508212518 | 64 | 8 | 3.0 | 6.0 | 0.00 | 0.00 | 0.00 | 24 | 1016.1 |
| 20260508211519 | 65 | 120 | 3.0 | 7.0 | 0.00 | 0.00 | 0.00 | 22 | 1016.2 |
| 20260508210559 | 65 | 348 | 6.0 | 10.0 | 0.00 | 0.00 | 0.00 | 24 | 1016.1 |
| 20260508205519 | 65 | 358 | 6.0 | 13.0 | 0.00 | 0.00 | 0.00 | 25 | 1016.3 |
| 20260508204519 | 64 | 325 | 5.0 | 10.0 | 0.00 | 0.00 | 0.00 | 26 | 1016.4 |
| 20260508203519 | 62 | 319 | 4.0 | 7.0 | 0.00 | 0.00 | 0.00 | 27 | 1016.5 |
| 20260508202517 | 64 | 297 | 3.0 | 7.0 | 0.00 | 0.00 | 0.00 | 27 | 1016.5 |
| 20260508201516 | 64 | 319 | 7.0 | 11.0 | 0.00 | 0.00 | 0.00 | 28 | 1016.6 |
| 20260508200539 | 62 | 270 | 6.0 | 12.0 | 0.00 | 0.00 | 0.00 | 29 | 1016.7 |
| 20260508195520 | 64 | 85 | 5.0 | 11.0 | 0.00 | 0.00 | 0.00 | 28 | 1016.8 |
| 20260508194520 | 63 | 52 | 3.0 | 6.0 | 0.00 | 0.00 | 0.00 | 29 | 1017.0 |
| 20260508193520 | 61 | 192 | 5.0 | 8.0 | 0.00 | 0.00 | 0.00 | 31 | 1017.0 |
| 20260508192520 | 60 | 167 | 4.0 | 8.0 | 0.00 | 0.00 | 0.00 | 30 | 1017.1 |
| 20260508191520 | 60 | 226 | 3.0 | 6.0 | 0.00 | 0.00 | 0.00 | 31 | 1017.2 |
| 20260508190541 | 61 | 302 | 3.0 | 8.0 | 0.00 | 0.00 | 0.00 | 29 | 1017.3 |
| 20260508185541 | 60 | 323 | 4.0 | 10.0 | 0.00 | 0.00 | 0.00 | 30 | 1017.4 |
| 20260508184601 | 60 | 10 | 5.0 | 8.0 | 0.00 | 0.00 | 0.00 | 30 | 1017.6 |
| 20260508183521 | 60 | 239 | 5.0 | 9.0 | 0.00 | 0.00 | 0.00 | 32 | 1017.7 |
| 20260508182521 | 60 | 331 | 5.0 | 8.0 | 0.00 | 0.00 | 0.00 | 30 | 1017.8 |
| 20260508181521 | 59 | 306 | 2.0 | 5.0 | 0.00 | 0.00 | 0.00 | 30 | 1017.8 |
| 20260508180522 | 59 | 323 | 5.0 | 8.0 | 0.00 | 0.00 | 0.00 | 32 | 1017.9 |
| 20260508175519 | 59 | 284 | 6.0 | 11.0 | 0.00 | 0.00 | 0.00 | 32 | 1018.0 |
| 20260508174519 | 58 | 11 | 7.0 | 11.0 | 0.00 | 0.00 | 0.00 | 32 | 1018.1 |
| 20260508173519 | 58 | 36 | 7.0 | 13.0 | 0.00 | 0.00 | 0.00 | 32 | 1018.2 |
| 20260508172542 | 57 | 53 | 6.0 | 10.0 | 0.00 | 0.00 | 0.00 | 31 | 1018.3 |
| 20260508171520 | 57 | 19 | 7.0 | 14.0 | 0.00 | 0.00 | 0.00 | 32 | 1018.3 |
| 20260508170600 | 57 | 25 | 8.0 | 14.0 | 0.00 | 0.00 | 0.00 | 32 | 1018.3 |
| 20260508165517 | 57 | 40 | 8.0 | 13.0 | 0.00 | 0.00 | 0.00 | 34 | 1018.4 |
| 20260508164537 | 57 | 6 | 7.0 | 12.0 | 0.00 | 0.00 | 0.00 | 32 | 1018.4 |
| 20260508163517 | 56 | 31 | 8.0 | 14.0 | 0.00 | 0.00 | 0.00 | 33 | 1018.4 |
| 20260508162540 | 56 | 7 | 7.0 | 12.0 | 0.00 | 0.00 | 0.00 | 32 | 1018.4 |
| 20260508161517 | 56 | 29 | 9.0 | 13.0 | 0.00 | 0.00 | 0.00 | 33 | 1018.4 |
| 20260508160518 | 56 | 16 | 6.0 | 10.0 | 0.00 | 0.00 | 0.00 | 35 | 1018.5 |
| 20260508155558 | 55 | 30 | 8.0 | 13.0 | 0.00 | 0.00 | 0.00 | 34 | 1018.5 |
| 20260508154538 | 55 | 29 | 8.0 | 13.0 | 0.00 | 0.00 | 0.00 | 35 | 1018.5 |
| 20260508153518 | 54 | 29 | 5.0 | 12.0 | 0.00 | 0.00 | 0.00 | 33 | 1018.5 |
| 20260508152538 | 54 | 43 | 8.0 | 14.0 | 0.00 | 0.00 | 0.00 | 35 | 1018.5 |
| 20260508151519 | 54 | 33 | 6.0 | 12.0 | 0.00 | 0.00 | 0.00 | 35 | 1018.5 |
| 20260508150519 | 54 | 37 | 6.0 | 9.0 | 0.00 | 0.00 | 0.00 | 36 | 1018.6 |
| 20260508145519 | 53 | 12 | 5.0 | 8.0 | 0.00 | 0.00 | 0.00 | 38 | 1018.6 |
| 20260508144519 | 53 | 6 | 3.0 | 6.0 | 0.00 | 0.00 | 0.00 | 37 | 1018.6 |
| 20260508143519 | 53 | 3 | 2.0 | 5.0 | 0.00 | 0.00 | 0.00 | 38 | 1018.7 |
| 20260508142516 | 52 | 66 | 2.0 | 4.0 | 0.00 | 0.00 | 0.00 | 38 | 1018.7 |
| 20260508141516 | 52 | 33 | 2.0 | 3.0 | 0.00 | 0.00 | 0.00 | 39 | 1018.7 |
| 20260508140530 | 50 | 86 | 2.0 | 5.0 | 0.00 | 0.00 | 0.00 | 41 | 1018.7 |
| 20260508135520 | 49 | 67 | 3.0 | 6.0 | 0.00 | 0.00 | 0.00 | 43 | 1018.7 |
| 20260508134541 | 48 | 74 | 4.0 | 6.0 | 0.00 | 0.00 | 0.00 | 48 | 1018.6 |
| 20260508133540 | 47 | 80 | 4.0 | 7.0 | 0.00 | 0.00 | 0.00 | 54 | 1018.6 |
| 20260508132541 | 45 | 83 | 5.0 | 6.0 | 0.00 | 0.00 | 0.00 | 59 | 1018.6 |
| 20260508131518 | 44 | 177 | 1.0 | 3.0 | 0.00 | 0.00 | 0.00 | 61 | 1018.6 |
| 20260508130518 | 42 | 179 | 1.0 | 3.0 | 0.00 | 0.00 | 0.00 | 62 | 1018.6 |
| 20260508125518 | 41 | 224 | 2.0 | 3.0 | 0.00 | 0.00 | 0.00 | 64 | 1018.6 |
| 20260508124521 | 40 | 93 | 3.0 | 5.0 | 0.00 | 0.00 | 0.00 | 64 | 1018.4 |
| 20260508123522 | 37 | 101 | 4.0 | 6.0 | 0.00 | 0.00 | 0.00 | 69 | 1018.4 |
| 20260508122602 | 34 | 98 | 3.0 | 5.0 | 0.00 | 0.00 | 0.00 | 74 | 1018.4 |
| 20260508121522 | 32 | 101 | 3.0 | 6.0 | 0.00 | 0.00 | 0.00 | 78 | 1018.2 |
| 20260508120519 | 32 | 178 | 2.0 | 4.0 | 0.00 | 0.00 | 0.00 | 79 | 1018.1 |
| 20260508115519 | 33 | 187 | 3.0 | 4.0 | 0.00 | 0.00 | 0.00 | 78 | 1018.1 |
| 20260508114519 | 33 | 204 | 2.0 | 4.0 | 0.00 | 0.00 | 0.00 | 76 | 1018.1 |
| 20260508113520 | 33 | 183 | 2.0 | 3.0 | 0.00 | 0.00 | 0.00 | 77 | 1018.0 |
| 20260508112520 | 32 | 158 | 2.0 | 4.0 | 0.00 | 0.00 | 0.00 | 79 | 1018.1 |
| 20260508111520 | 34 | 151 | 2.0 | 4.0 | 0.00 | 0.00 | 0.00 | 76 | 1018.1 |
| 20260508110517 | 35 | 135 | 4.0 | 5.0 | 0.00 | 0.00 | 0.00 | 73 | 1018.0 |
| 20260508105600 | 34 | 111 | 3.0 | 4.0 | 0.00 | 0.00 | 0.00 | 75 | 1018.1 |
| 20260508104521 | 35 | 111 | 3.0 | 5.0 | 0.00 | 0.00 | 0.00 | 72 | 1018.0 |
| 20260508103523 | 36 | 88 | 3.0 | 5.0 | 0.00 | 0.00 | 0.00 | 71 | 1018.0 |
| 20260508102521 | 34 | 99 | 2.0 | 4.0 | 0.00 | 0.00 | 0.00 | 71 | 1017.9 |
| 20260508101519 | 33 | 165 | 3.0 | 6.0 | 0.00 | 0.00 | 0.00 | 79 | 1017.9 |
| 20260508100521 | 34 | 155 | 4.0 | 5.0 | 0.00 | 0.00 | 0.00 | 77 | 1017.8 |
| 20260508095521 | 36 | 143 | 3.0 | 4.0 | 0.00 | 0.00 | 0.00 | 74 | 1017.8 |
| 20260508094519 | 36 | 148 | 4.0 | 6.0 | 0.00 | 0.00 | 0.00 | 70 | 1017.9 |
| 20260508093543 | 38 | 118 | 1.0 | 2.0 | 0.00 | 0.00 | 0.00 | 68 | 1017.8 |
| 20260508092522 | 39 | 121 | 3.0 | 4.0 | 0.00 | 0.00 | 0.00 | 64 | 1017.8 |
| 20260508091522 | 39 | 131 | 2.0 | 3.0 | 0.00 | 0.00 | 0.00 | 67 | 1017.9 |
| 20260508090520 | 40 | 246 | 2.0 | 6.0 | 0.00 | 0.00 | 0.00 | 64 | 1017.8 |
| 20260508085522 | 41 | 94 | 2.0 | 4.0 | 0.00 | 0.00 | 0.00 | 63 | 1017.9 |
| 20260508084522 | 42 | 112 | 2.0 | 3.0 | 0.00 | 0.00 | 0.00 | 60 | 1017.9 |
| 20260508083520 | 41 | 62 | 5.0 | 6.0 | 0.00 | 0.00 | 0.00 | 60 | 1018.0 |
| 20260508082520 | 41 | 83 | 4.0 | 6.0 | 0.00 | 0.00 | 0.00 | 64 | 1018.0 |
| 20260508081523 | 40 | 97 | 2.0 | 4.0 | 0.00 | 0.00 | 0.00 | 65 | 1018.2 |
| 20260508080543 | 38 | 101 | 1.0 | 3.0 | 0.00 | 0.00 | 0.00 | 70 | 1018.3 |
| 20260508075524 | 37 | 157 | 4.0 | 5.0 | 0.00 | 0.00 | 0.00 | 74 | 1018.3 |
| 20260508074523 | 38 | 167 | 1.0 | 3.0 | 0.00 | 0.00 | 0.00 | 73 | 1018.3 |
| 20260508073524 | 37 | 144 | 2.0 | 3.0 | 0.00 | 0.00 | 0.00 | 77 | 1018.3 |
| 20260508072524 | 38 | 173 | 3.0 | 4.0 | 0.00 | 0.00 | 0.00 | 76 | 1018.2 |
| 20260508071521 | 38 | 175 | 4.0 | 6.0 | 0.00 | 0.00 | 0.00 | 75 | 1018.4 |
| 20260508070525 | 39 | 149 | 2.0 | 3.0 | 0.00 | 0.00 | 0.00 | 75 | 1018.5 |
| 20260508065544 | 39 | 148 | 4.0 | 5.0 | 0.00 | 0.00 | 0.00 | 76 | 1018.5 |
| 20260508064524 | 40 | 110 | 2.0 | 3.0 | 0.00 | 0.00 | 0.00 | 70 | 1018.5 |
| 20260508063525 | 41 | 126 | 2.0 | 3.0 | 0.00 | 0.00 | 0.00 | 66 | 1018.4 |
| 20260508062525 | 41 | 134 | 3.0 | 4.0 | 0.00 | 0.00 | 0.00 | 68 | 1018.4 |
| 20260508061525 | 41 | 168 | 4.0 | 5.0 | 0.00 | 0.00 | 0.00 | 69 | 1018.3 |
| 20260508060525 | 41 | 149 | 3.0 | 5.0 | 0.00 | 0.00 | 0.00 | 66 | 1018.2 |
| 20260508055546 | 40 | 141 | 4.0 | 5.0 | 0.00 | 0.00 | 0.00 | 70 | 1018.4 |
| 20260508054526 | 39 | 167 | 3.0 | 5.0 | 0.00 | 0.00 | 0.00 | 74 | 1018.3 |
| 20260508053517 | 39 | 174 | 4.0 | 6.0 | 0.00 | 0.00 | 0.00 | 76 | 1018.3 |
| 20260508052527 | 41 | 223 | 1.0 | 4.0 | 0.00 | 0.00 | 0.00 | 70 | 1018.4 |
| 20260508051546 | 41 | 155 | 1.0 | 3.0 | 0.00 | 0.00 | 0.00 | 63 | 1018.4 |
| 20260508050527 | 42 | 78 | 0.0 | 1.0 | 0.00 | 0.00 | 0.00 | 68 | 1018.6 |
| 20260508045527 | 43 | 126 | 2.0 | 4.0 | 0.00 | 0.00 | 0.00 | 58 | 1018.6 |
| 20260508044527 | 42 | 109 | 2.0 | 4.0 | 0.00 | 0.00 | 0.00 | 61 | 1018.6 |
| 20260508043538 | 42 | 133 | 3.0 | 5.0 | 0.00 | 0.00 | 0.00 | 66 | 1018.7 |
| 20260508042527 | 43 | 184 | 1.0 | 3.0 | 0.00 | 0.00 | 0.00 | 62 | 1018.9 |
| 20260508041518 | 42 | 158 | 2.0 | 5.0 | 0.00 | 0.00 | 0.00 | 63 | 1018.8 |
| 20260508040518 | 42 | 87 | 2.0 | 5.0 | 0.00 | 0.00 | 0.00 | 70 | 1018.6 |
| 20260508035519 | 43 | 84 | 4.0 | 6.0 | 0.00 | 0.00 | 0.00 | 69 | 1018.6 |
| 20260508034528 | 43 | 138 | 3.0 | 3.0 | 0.00 | 0.00 | 0.00 | 65 | 1018.6 |
| 20260508033519 | 43 | 165 | 5.0 | 7.0 | 0.00 | 0.00 | 0.00 | 65 | 1018.5 |
| 20260508032519 | 43 | 148 | 5.0 | 7.0 | 0.00 | 0.00 | 0.00 | 67 | 1018.5 |
| 20260508031520 | 42 | 138 | 5.0 | 7.0 | 0.00 | 0.00 | 0.00 | 67 | 1018.4 |
| 20260508030520 | 42 | 159 | 5.0 | 7.0 | 0.00 | 0.00 | 0.00 | 72 | 1018.3 |
| 20260508025529 | 41 | 146 | 4.0 | 5.0 | 0.00 | 0.00 | 0.00 | 75 | 1018.2 |
| 20260508024520 | 42 | 151 | 4.0 | 6.0 | 0.00 | 0.00 | 0.00 | 74 | 1018.1 |
| 20260508023520 | 41 | 144 | 5.0 | 6.0 | 0.00 | 0.00 | 0.00 | 76 | 1018.1 |
| 20260508022529 | 44 | 141 | 3.0 | 4.0 | 0.00 | 0.00 | 0.00 | 71 | 1018.0 |
| 20260508021550 | 46 | 100 | 2.0 | 4.0 | 0.00 | 0.00 | 0.00 | 59 | 1017.8 |
| 20260508020530 | 47 | 119 | 2.0 | 2.0 | 0.00 | 0.00 | 0.00 | 55 | 1017.8 |
| 20260508015530 | 49 | 81 | 2.0 | 3.0 | 0.00 | 0.00 | 0.00 | 55 | 1017.7 |
| 20260508014530 | 50 | 7 | 0.0 | 0.0 | 0.00 | 0.00 | 0.00 | 51 | 1017.5 |
| 20260508013531 | 51 | 313 | 2.0 | 2.0 | 0.00 | 0.00 | 0.00 | 50 | 1017.4 |
| 20260508012521 | 53 | 328 | 3.0 | 6.0 | 0.00 | 0.00 | 0.00 | 47 | 1017.4 |
| 20260508011522 | 55 | 324 | 6.0 | 9.0 | 0.00 | 0.00 | 0.00 | 42 | 1017.3 |
| 20260508010516 | 55 | 325 | 7.0 | 11.0 | 0.00 | 0.00 | 0.00 | 36 | 1017.3 |
| 20260508005522 | 56 | 327 | 6.0 | 9.0 | 0.00 | 0.00 | 0.00 | 36 | 1017.2 |
| 20260508003522 | 57 | 340 | 6.0 | 9.0 | 0.00 | 0.00 | 0.00 | 35 | 1017.1 |
| 20260508002520 | 57 | 347 | 9.0 | 14.0 | 0.00 | 0.00 | 0.00 | 32 | 1017.1 |
| 20260508001517 | 56 | 321 | 6.0 | 9.0 | 0.00 | 0.00 | 0.00 | 35 | 1017.0 |
| 20260508000517 | 56 | 314 | 6.0 | 9.0 | 0.00 | 0.00 | 0.00 | 36 | 1017.0 |
| 20260507235538 | 58 | 316 | 8.0 | 13.0 | 0.00 | 0.00 | 0.00 | 34 | 1017.0 |
| 20260507234518 | 58 | 353 | 4.0 | 9.0 | 0.00 | 0.00 | 0.00 | 34 | 1017.0 |
| 20260507233524 | 58 | 1 | 6.0 | 9.0 | 0.00 | 0.00 | 0.00 | 32 | 1017.0 |
| 20260507232538 | 58 | 9 | 7.0 | 13.0 | 0.00 | 0.00 | 0.00 | 32 | 1016.9 |
| 20260507231518 | 57 | 30 | 6.0 | 11.0 | 0.00 | 0.00 | 0.00 | 34 | 1017.0 |
| 20260507230518 | 58 | 354 | 6.0 | 10.0 | 0.00 | 0.00 | 0.00 | 33 | 1017.0 |
| 20260507225518 | 57 | 1 | 6.0 | 9.0 | 0.00 | 0.00 | 0.00 | 33 | 1017.1 |